Гутай

Россия / Забайкальский край     49°59′36″N   108°11′45″E
темп.,
°C
ветер,
м/с
пор.,
м/с
влажн.,
%
обл.,
%
осадки,
мм/ч
давл.,
гПа
погр.,
м
12 мая, ср
ср1200:00−1ю22922 0.0 101816
03:00−2ю22945 0.0 101917
06:00−3ю21953 0.0 101817
09:00+5юз12645 0.0 1015340
12:00+11з363720 0.0 10111894
15:00+14з4728100 0.0 10083261
18:00+14зсз462547 0.0 10062843
21:00+8св224852 0.0 100817
13 мая, чт
чт1300:00+3св227411 0.0 101245
03:00+1св2293100 0.0 101348
06:000св1298100 0.0 1013125
09:00+1ссв1299100 1.8 1014136
12:00+4с127797 1.6 1014845
15:00+6сз2469100 2.2 10121263
18:00+8ссз4736100 0.3 10112291
21:00+3ссз24528 0.3 101481
14 мая, пт
пт1400:00−2ююз1166100 0.0 101810
03:00−4ю22742 0.0 101923
06:00−5ю21813 0.0 102017
09:00+3з23460 0.0 1019553
12:00+8зсз353110 0.0 10152041
15:00+11зсз44275 0.0 10132265
18:00+12сз34254 0.0 10132235
21:00+5юз11440 0.0 101511
15 мая, сб
сб1500:000ююв22600 0.0 101921
03:00−1ююв22650 0.0 102018
06:00−2ююв21682 0.0 102015
09:00+8ююз12345 0.0 1017336
12:00+14з342547 0.0 10141771
15:00+16з442098 0.0 10132316
18:00+16з34213 0.0 10122637
21:00+10ссв24495 0.0 101593
16 мая, вс
вс1600:00+5с117038 0.0 101911
03:00+3ююв118181 0.0 102110
06:00+1ю11905 0.0 102310
09:00+8зюз23565 0.0 1022474
12:00+15зсз353622 0.0 10191814
15:00+18з35306 0.0 10162205
18:00+18зюз44325 0.0 10141848
21:00+12ю11504 0.0 101410